Location: Unspecified
(0.0000°N, 0.0000°E)
Time: 05:00:40
(UTC+00:00)

OBJECT AA - Pass Details

Date: 22 May 2026
Orbit: 535 x 552 km, 97.4° (Epoch: 11 June)

Event Time Altitude Azimuth Distance (km) Brightness Sun altitude
Rises 05:25:15 0° 203° (SSW) 2,722 ? -7.4°
Reaches altitude 10° 05:28:27 10° 231° (SW) 1,827 ? -6.6°
Maximum altitude 05:30:14 13° 258° (WSW) 1,653 ? -6.2°
Drops below altitude 10° 05:32:00 10° 285° (WNW) 1,824 ? -5.8°
Sets 05:35:13 0° 314° (NW) 2,714 ? -5.0°
